Location: Brookfield Village
(37.7352°N, 122.1861°W)
Time: 05:44:24
(UTC+00:00)

Cosmos 2237 Rocket - Pass Details

Date: 03 August 2024
Orbit: 836 x 848 km, 71.0° (Epoch: 14 September)

Event Time Altitude Azimuth Distance (km) Brightness Sun altitude
Exits shadow 12:42:26 - 217° (SW) 2,912 4.4 -6.6°
Reaches altitude 10° 12:43:41 10° 220° (SW) 2,454 4.0 -6.4°
Maximum altitude 12:49:09 51° 296° (WNW) 1,055 2.5 -5.4°
Drops below altitude 10° 12:54:38 10° 12° (NNE) 2,460 5.2 -4.4°
Sets 12:57:09 0° 18° (NNE) 3,396 6.1 -4.0°
